Kuiper-00098

operational
NORAD ID: 65137 Int'l Des: 2025-171 Owner: KUIP Country: US Constellation: kuiper
LEOCIRCULAR

Kuiper-00098について

説明を読み込み中...

リアルタイム位置

3D地球を読み込み中...

次回通過

高度履歴

Altitude vs Time

uPlot chart will show altitude changes over time

軌道要素

1 65137U 25171F 25304.25002315 -.01022624 00000-0 -69161-1 0 9993
2 65137 51.8861 17.6228 0007489 60.8003 93.3023 15.08769071 2897
Epoch: Oct 31, 2025 • Age: 5 hours

現在のステータス

高度 542.1 km
速度 7.60 km/s
衛星直下点 35.02°N, 36.58°W
打ち上げ日 Aug 11, 2025
運用期間 0.2 years
タイプ internet

技術仕様

分類 Payload
質量 490.00 kg
乾燥質量 490.00 kg
総質量 490.00 kg
長さ 1.80 m
直径 0.70 m
スパン 5.00 m
形状 Box + 2 pan
製造者 KUIP
バスタイプ Kuiper
フェーズステータス In Orbit
所有者/国 KUIP/US

大規模コンステレーション

Loading constellations...